Location: Atbuku
(36.4936°N, 30.4362°E)
Time: 04:53:54
(UTC+00:00)

Cosmos 1825 Rocket - Pass Details

Date: 11 December 2025
Orbit: 596 x 624 km, 82.5° (Epoch: 13 January)

Event Time Altitude Azimuth Distance (km) Brightness Sun altitude
Rises 15:46:21 0° 353° (N) 2,870 6.8 -12.5°
Reaches altitude 10° 15:48:35 10° 354° (N) 1,958 6.0 -12.9°
Maximum altitude 15:52:54 84° 81° (E) 609 3.4 -13.7°
Drops below altitude 10° 15:57:11 10° 172° (S) 1,930 6.2 -14.5°
Sets 15:59:22 0° 173° (S) 2,825 7.1 -14.9°
